Simultaneous Nadir Overpasses (SNOs) Predictions

Prediction of SNOs between GOES-16 and NOAA-19 Satellite Orbit:

Table of predicted SNOs for the next 14.0 days since TLE Epoch: 1/3/2020
Index Date Time (GOES-16) GOES-16 Lat,Lon NOAA-19 Lat,Lon Distance(km) Time Diff (sec)
1 01/04/2020 10:14:13 0.06, -75.20 -0.71, -71.99 366.82 80
2 01/06/2020 22:35:20 -0.06, -75.20 -0.49, -76.98 204.01 80
3 01/07/2020 22:26:21 -0.06, -75.20 0.16, -74.13 121.52 80
4 01/08/2020 22:14:42 -0.07, -75.21 0.87, -71.30 447.03 80
5 01/10/2020 10:47:20 0.07, -75.22 0.95, -79.10 442.09 80
6 01/11/2020 10:35:39 0.08, -75.23 0.34, -76.24 116.29 80
7 01/12/2020 10:21:20 0.08, -75.24 -0.32, -73.40 209.71 80
8 01/14/2020 22:42:31 -0.09, -75.25 -0.81, -78.41 360.38 80
9 01/15/2020 22:33:31 -0.09, -75.26 -0.15, -75.56 34.04 80
10 01/16/2020 22:19:12 -0.09, -75.27 0.50, -72.71 292.48 80




NCC Satellite Simultaneous Nadir Overpasses (SNOs) Prediction Service
